www.pogodaiklimat.ru
ПОГОДА в Чикопи-Фолсе
Время
и дата
05:55 24.09
06:55 24.09
07:55 24.09
08:55 24.09
09:55 24.09
10:55 24.09
11:55 24.09
12:55 24.09
13:55 24.09
14:55 24.09
15:55 24.09
16:55 24.09
17:55 24.09
18:55 24.09
19:55 24.09
20:55 24.09
21:55 24.09
22:55 24.09
23:55 24.09
00:55 25.09
01:55 25.09
02:55 25.09
03:55 25.09
04:55 25.09
05:55 25.09
06:55 25.09
07:55 25.09
08:55 25.09
09:55 25.09
10:55 25.09
11:55 25.09
12:37 25.09
12:55 25.09
13:55 25.09
14:55 25.09
15:56 25.09
16:55 25.09
17:55 25.09
18:55 25.09
19:55 25.09
20:55 25.09
21:55 25.09
22:55 25.09
23:55 25.09
00:20 26.09
00:34 26.09
00:55 26.09
01:10 26.09
Ветер
(напр.,м/с)
Видим. Явления Облачность Т
(С)
Тd
(С)
f
(%)
Тe
(С)
Тes
(С)
Комфортность P
(гПа)
Po
(гПа)
Тmin
(С)
Tmax
(С)
R
(мм)
R24
(мм)
S
(см)
З 3 16 км 2/0 7500 m
[Ci]
+6.1 +2.0 75 +3 +3 1014.2 1004.4
З 4 16 км 2/0 7500 m
[Ci]
+8.4 +2.6 67 +5 +5 1014.2 1004.4 +2.5 +8.4
СЗ 6 16 км 2/0 7500 m
[Ci]
+10.4 +2.7 59 +7 +8 1014.2 1004.4
С 5
{7}
16 км 2/0 7500 m
[Ci]
+13.0 +2.5 49 +11 +13 1014.2 1004.4
СЗ 6 16 км 2/0 7500 m
[Ci]
+14.8 +1.7 41 +13 +16 1014.2 1004.4
С 5 16 км 2/0 7500 m
[Ci]
+16.4 +1.7 37 +16 +20 1013.5 1003.8
СЗ 5 16 км 2/0 7500 m
[Ci]
+17.9 +1.8 34 +18 +23 1013.1 1003.4
СЗ 7 16 км 2/0 7500 m
[Ci]
+18.8 +2.6 34 +18 +21 1012.1 1002.4 +8.5 +19.3
С 5 16 км 2/0 7500 m
[Ci]
+19.1 +2.4 33 +19 +24 1011.8 1002.1
С 5 16 км 2/0 7500 m
[Ci]
+19.4 +3.1 34 +20 +24 1011.1 1001.4
С 4 16 км 2/0 7500 m
[Ci]
+19.1 +4.1 37 +19 +23 1010.8 1001.1
З 4 16 км 5/0 6000 m
[Ac Ci]
+18.3 +5.2 42 +18 +20 1010.8 1001.1
ЮЗ 2 16 км 5/0 6000 m
[Ac Ci]
+15.9 +6.3 53 +16 +16 1010.8 1001.1
З 2 16 км 2/0 6000 m
[Ac Ci]
+14.1 +6.7 61 +14 +14 1011.1 1001.4 +13.3 +19.8
Ю 2 16 км 8/0 6000 m
[Ac Ci]
+11.3 +6.8 74 +10 +10 1011.1 1001.4
штиль 0 16 км 2/0 7500 m
[Ci]
+9.0 +7.0 87 +8 +8 1011.1 1001.4
штиль 0 16 км 2/0 7500 m
[Ci]
+8.4 +7.2 92 +7 +7 1011.5 1001.8
штиль 0 16 км ясно +6.3 +6.2 99 +5 +5 1011.5 1001.8
штиль 0 16 км ясно +6.0 +5.9 99 +5 +5 1011.4 1001.8
штиль 0 14 км ясно +5.3 +5.2 99 +4 +4 1011.4 1001.8 +5.3 +14.5
штиль 0 16 км 10/0 3900 m
[Ac]
+6.7 +6.6 99 +6 +6 1010.8 1001.1
штиль 0 16 км 10/0 3900 m
[Ac]
+7.4 +7.3 99 +6 +6 1010.1 1000.4
штиль 0 16 км 8/0 3600 m
[Ac]
+6.9 +6.8 99 +6 +6 1010.1 1000.4
штиль 0 13 км ясно +5.6 +5.5 99 +4 +4 1009.7 1000.1
СЗ 2 16 км 8/0 2700 m
[Ac Ci]
+6.4 +6.3 99 +4 +4 1009.8 1000.1
штиль 0 16 км 8/0 2700 m
[Ac Ci]
+8.4 +8.3 99 +7 +7 1009.4 999.7 +5.1 +8.4
штиль 0 16 км 8/5 1950 m
[Ac Ci]
+10.4 +8.8 90 +10 +10 1008.7 999.1
ЮЗ 2 16 км 10/8 1950 m
[Ac Ci]
+13.1 +8.8 75 +12 +13 1008.7 999.1
Ю 5 16 км 10/8 1800 m
[Ac Ci]
+14.8 +8.9 68 +13 +14 1008.1 998.4
Ю 3 16 км 10/2 1950 m
[Ac]
+16.3 +9.2 63 +16 +18 1007.1 997.4
Ю 4 16 км 10/0 2250 m
[Ac]
+17.3 +10.7 65 +17 +19 1006.4 996.7
Ю 5 16 км слабый дождь 10/0 2100 m
[Ac]
+18.0 +11.0 64 +18 +19 1005.7 996.1
Ю 4 16 км слабый дождь 10/8 1140 m
[Ac]
+17.4 +11.9 70 +17 +18 1005.4 995.7 +8.5 +18.4
Ю 3 16 км слабый дождь 10/10 870 м +17.1 +13.4 79 +17 +17 1004.7 995.0
ЮВ 2 16 км 8/5 870 m
[Ac]
+17.0 +14.6 86 +17 +20 1003.3 993.7
ЮВ 3 16 км 8/5 870 m
[Ac]
+18.6 +15.6 83 +20 +21 1002.6 993.0 0.3
Ю 3 16 км 8/8 900 m
[Ac]
+18.6 +15.3 81 +20 +20 1002.3 992.7
Ю 4 16 км 8/5 1320 m
[Ac Ci]
+17.8 +15.0 84 +18 +18 1001.9 992.4
Ю 3 16 км 8/0 2100 m
[Ac]
+16.3 +14.8 91 +16 +16 1001.9 992.4 +16.3 +19.3 0.3
Ю 4 16 км 5/0 2100 m
[Ac]
+16.8 +15.6 93 +16 +16 1001.9 992.4
Ю 4 16 км 5/0 3000 m
[Ac]
+16.2 +15.7 97 +15 +15 1001.9 992.4
Ю 2 16 км 8/0 2400 m
[Ac]
+15.7 +15.5 99 +16 +16 1002.2 992.7
Ю 3 16 км 5/0 2700 m
[Ac]
+16.0 +15.5 97 +15 +15 1001.9 992.4
Ю 3 14 км 10/5 1290 m
[Ac]
+16.1 +15.1 94 +16 +16 1001.5 992.0
Ю 3 16 км слабая морось 10/8 1410 m
[Ac]
+16.0 +15.0 94 +15 +15 1001.5 992.0
Ю 4 16 км 10/8 1470 m
[Ac]
+16.0 +15.0 94 +15 +15 1001.2 991.7
Ю 3 16 км 10/8
[Ac]
+15.9 +15.1 95 +15 +15 1001.2 991.7 +15.5 +16.9
штиль 0 16 км 10/5 330 m
[Ac]
+16.0 +15.0 94 +16 +16 1000.5 991.0
Местоположение метеостанции Westover Air Force Base: широта 42.2000 долгота -72.5333 высота над уровнем моря 75 м.
В архиве по умолчанию представлена погода в Чикопи-Фолсе за последние 1-2 суток. Обновление информации о фактической погоде в базе происходит ежечасно! Архивные данные за месяц целиком и за предыдущие месяцы Вы можете получить, выбрав интересующий диапазон дат из раскрывающегося списка и нажав кнопку "Ввод!".
Внимание! Архив погоды МЕТАР в базе сайта по станциям, не включенным в климатический монитор, хранится не более 60 дней. Нет смысла пытаться выбрать более раннюю дату.
*Определитесь, кто Вы:
Внимание! Время в таблицах - местное (без учета летнего времени). Для получения всемирного времени необходимо вычесть поправку, которая равна -5 ч.
Смотрите также архив погоды в соседних городах и на ближайших метеорологических станциях:
Партнеры нашего сайта:      
Пояснения к столбцам:
  • Ветер - указаны скорость ветра в м/с - средняя за 10 мин, порывы в срок и между сроками (в фигурных скобках) и направление, откуда дует ветер: С - северный,
  • СВ - северо-восточный, В - восточный, ЮВ - юго-восточный, Ю - южный, ЮЗ - юго-западный, З - западный, СЗ - северо-западный.
  • Видимость - горизонтальная дальность видимости в метрах или километрах. При видимости от 1 до 10 км при отсутствии осадков обычно наблюдается дымка, при ухудшении видимости до 1 км и менее - туман. В сухую погоду видимость может ухудшаться дымом, пылью или мглою.
  • Явления - указаны атмосферные явления, наблюдавшиеся в срок или в последний час перед сроком; фигурными скобками обозначены явления, наблюдавшиеся между сроками (за 1-3 часа до срока); квадратными скобками обозначены град или гололедные отложения с указанием их диаметра в мм.
  • Облачность - указаны через наклонную черту общая и нижняя облачность в баллах и высота нижней границы облаков в метрах; квадратными скобками обозначены формы облаков: Ci - перистые, Cs - перисто-слоистые, Cc - перисто-кучевые, Ac - высококучевые, As - высокослоистые, Sc - слоисто-кучевые, Ns - слоисто-дождевые, Cu - кучевые, Cb - кучево-дождевые. Подробнее классификацию облаков см. в Атласе облаков (PDF).
  • T - Температура воздуха - температура, измеренная на высоте 2 м над землей.
  • Td - Температура точки росы - температура, при понижении до которой содержащийся в воздухе водяной пар достигнет насыщения.
  • f - Относительная влажность воздуха - влажноcть воздуха, измеренная на высоте 2 м над землей.
  • Te - Эффективная температура - температура, которую ощущает одетый по сезону человек в тени. Характеристика душности погоды. При расчете учитывается влияние влажности воздуха и скорости ветра на теплоощущения человека.
  • Tes - Эффективная температура на солнце - температура, которую ощущает человек, с поправкой на солнечный нагрев. Характеристика знойности погоды. Зависит от высоты солнца над горизонтом, облачности и скорости ветра. Ночью, в пасмурную погоду, а также при ветре 12 м/с и более поправка равна нулю.
  • P - Атмосферное давление - приведенное к уровню моря атмосферное давление.
  • Po - Атмосферное давление - измеренное на уровне метеостанции атмосферное давление.
  • Tmin - Минимальная температура - минимум температуры воздуха на высоте 2 м над землей.
  • Tmax - Максимальная температура - максимум температуры воздуха на высоте 2 м над землей.
  • R - Количество осадков - Количество выпавших осадков за период времени, мм. При наведении курсора мыши на число - период времени, за который выпало указанное количество осадков.
  • R24 - Количество осадков - Количество выпавших осадков за 24 часа, мм.
  • S - Снежный покров - Высота снежного покрова, см. При наведении курсора мыши на число - состояние снежного покрова и степень покрытия местности в баллах.